UAE5K LIMJ-LICC

Flight info

Callsign UAE5K
Flight time N/A
Altitude 41000
Route UNITA DCT ELB DCT PODOX DCT LURON DCT BEKIV DCT ENEPA DCT LIBRO
Aircraft A359/H-SDE2E3GHIJ3J4J5LM1ORWXY/LB1D1

Departure

Time 2026-04-26 18:15
Airport Genoa Cristoforo Colombo Airport (LIMJ)

Arrival

Time N/A
Airport Catania-Fontanarossa Airport (LICC)
Time Latitude Longitude Altitude Speed Heading
2026-04-26 17:32 44.41325 8.84713 26 ft 0 kts 194°
2026-04-26 18:05 44.41355 8.84723 26 ft 2 kts 194°
2026-04-26 18:05 44.41371 8.84729 26 ft 2 kts 186°
2026-04-26 18:05 44.41387 8.84727 25 ft 2 kts 153°
2026-04-26 18:05 44.41399 8.84712 25 ft 2 kts 105°
2026-04-26 18:06 44.41400 8.84705 25 ft 0 kts 105°
2026-04-26 18:08 44.41388 8.84769 25 ft 12 kts 104°
2026-04-26 18:08 44.41362 8.84914 27 ft 19 kts 104°
2026-04-26 18:08 44.41324 8.85118 27 ft 23 kts 104°
2026-04-26 18:08 44.41256 8.85271 27 ft 14 kts 161°
2026-04-26 18:09 44.41169 8.85257 27 ft 13 kts 194°
2026-04-26 18:09 44.41108 8.85235 26 ft 0 kts 195°
2026-04-26 18:11 44.41079 8.85217 29 ft 10 kts 206°
2026-04-26 18:12 44.41003 8.85239 28 ft 13 kts 134°
2026-04-26 18:12 44.40962 8.85390 29 ft 21 kts 105°
2026-04-26 18:12 44.40915 8.85626 28 ft 29 kts 105°
2026-04-26 18:12 44.40858 8.85913 29 ft 20 kts 102°
2026-04-26 18:13 44.40867 8.86005 29 ft 5 kts 104°
2026-04-26 18:13 44.40856 8.86010 29 ft 1 kts 172°
2026-04-26 18:13 44.40855 8.86009 29 ft 0 kts 180°
2026-04-26 18:13 44.40852 8.86006 29 ft 1 kts 197°
2026-04-26 18:14 44.40850 8.85981 29 ft 5 kts 269°
2026-04-26 18:14 44.40890 8.85749 29 ft 67 kts 284°
2026-04-26 18:14 44.41108 8.84634 36 ft 166 kts 284°
2026-04-26 18:14 44.41449 8.82815 576 ft 213 kts 284°
2026-04-26 18:15 44.41783 8.80650 1282 ft 236 kts 272°
2026-04-26 18:15 44.41367 8.78381 1564 ft 258 kts 237°
2026-04-26 18:15 44.39985 8.76713 2001 ft 271 kts 202°
2026-04-26 18:15 44.38161 8.76450 2941 ft 263 kts 170°
2026-04-26 18:16 44.36394 8.77001 3747 ft 263 kts 165°
2026-04-26 18:16 44.32784 8.78354 5019 ft 274 kts 157°
2026-04-26 18:16 44.31014 8.79407 5641 ft 279 kts 155°
2026-04-26 18:17 44.29229 8.80520 6299 ft 282 kts 155°
2026-04-26 18:17 44.27420 8.81660 6935 ft 286 kts 155°
2026-04-26 18:17 44.25596 8.82815 7560 ft 289 kts 155°
2026-04-26 18:17 44.23771 8.83971 8203 ft 292 kts 155°
2026-04-26 18:18 44.21906 8.85154 8856 ft 295 kts 155°
2026-04-26 18:18 44.20018 8.86351 9536 ft 298 kts 155°
2026-04-26 18:18 44.18115 8.87557 10187 ft 302 kts 155°
2026-04-26 18:18 44.16217 8.88760 10781 ft 305 kts 155°
2026-04-26 18:19 44.14273 8.89991 11376 ft 308 kts 155°
2026-04-26 18:19 44.12305 8.91235 11978 ft 312 kts 155°
2026-04-26 18:19 44.10316 8.92493 12604 ft 315 kts 155°
2026-04-26 18:19 44.08307 8.93762 13233 ft 318 kts 155°
2026-04-26 18:20 44.06277 8.95044 13815 ft 322 kts 155°
2026-04-26 18:20 44.04227 8.96338 14382 ft 325 kts 155°
2026-04-26 18:20 44.02183 8.97627 14935 ft 327 kts 155°
2026-04-26 18:20 44.00796 8.98500 15314 ft 329 kts 155°
2026-04-26 18:21 43.97983 9.00271 16063 ft 333 kts 156°
2026-04-26 18:21 43.95884 9.01606 16628 ft 336 kts 155°
2026-04-26 18:21 43.93842 9.03236 17174 ft 339 kts 146°
2026-04-26 18:21 43.91921 9.05189 17754 ft 343 kts 142°
2026-04-26 18:22 43.90062 9.07293 18278 ft 346 kts 141°
2026-04-26 18:22 43.88248 9.09447 18773 ft 349 kts 140°
2026-04-26 18:22 43.86398 9.11670 19243 ft 352 kts 140°
2026-04-26 18:22 43.84531 9.13898 19721 ft 355 kts 140°
2026-04-26 18:23 43.82640 9.16129 20214 ft 357 kts 141°
2026-04-26 18:23 43.80752 9.18332 20679 ft 360 kts 141°
2026-04-26 18:23 43.78822 9.20566 21153 ft 362 kts 141°
2026-04-26 18:23 43.76875 9.22807 21632 ft 365 kts 142°
2026-04-26 18:24 43.74906 9.25069 22096 ft 367 kts 142°
2026-04-26 18:24 43.72952 9.27311 22564 ft 370 kts 142°
2026-04-26 18:24 43.70955 9.29601 23034 ft 372 kts 142°
2026-04-26 18:24 43.68955 9.31894 23497 ft 375 kts 142°
2026-04-26 18:25 43.66935 9.34208 23922 ft 378 kts 142°
2026-04-26 18:25 43.64907 9.36530 24284 ft 380 kts 142°
2026-04-26 18:25 43.62883 9.38846 24685 ft 383 kts 142°
2026-04-26 18:25 43.60826 9.41198 25083 ft 385 kts 142°
2026-04-26 18:26 43.58742 9.43578 25486 ft 388 kts 142°
2026-04-26 18:26 43.56655 9.45960 25888 ft 390 kts 142°
2026-04-26 18:26 43.54580 9.48325 26288 ft 393 kts 142°
2026-04-26 18:26 43.52457 9.50744 26725 ft 396 kts 142°
2026-04-26 18:27 43.50320 9.53175 27155 ft 399 kts 142°
2026-04-26 18:27 43.48167 9.55623 27600 ft 401 kts 142°
2026-04-26 18:27 43.46006 9.58077 28051 ft 404 kts 142°
2026-04-26 18:27 43.43849 9.60524 28491 ft 407 kts 142°
2026-04-26 18:28 43.41649 9.63018 28963 ft 410 kts 142°
2026-04-26 18:28 43.39435 9.65525 29436 ft 413 kts 142°
2026-04-26 18:28 43.37220 9.68031 30039 ft 412 kts 142°
2026-04-26 18:28 43.35004 9.70537 30605 ft 410 kts 142°
2026-04-26 18:29 43.32827 9.72996 31116 ft 409 kts 142°
2026-04-26 18:29 43.30626 9.75480 31636 ft 409 kts 142°
2026-04-26 18:29 43.28424 9.77962 32144 ft 408 kts 142°
2026-04-26 18:29 43.26224 9.80439 32644 ft 407 kts 142°
2026-04-26 18:30 43.24055 9.82878 33124 ft 406 kts 142°
2026-04-26 18:30 43.21862 9.85342 33603 ft 406 kts 142°
2026-04-26 18:30 43.19663 9.87811 34089 ft 405 kts 142°
2026-04-26 18:30 43.17504 9.90232 34498 ft 405 kts 142°
2026-04-26 18:31 43.15325 9.92674 34887 ft 404 kts 142°
2026-04-26 18:31 43.13142 9.95118 35275 ft 403 kts 142°
2026-04-26 18:31 43.10969 9.97549 35637 ft 403 kts 142°
2026-04-26 18:31 43.08824 9.99945 35984 ft 402 kts 142°
2026-04-26 18:32 43.06645 10.02377 36325 ft 402 kts 142°
2026-04-26 18:32 43.04468 10.04804 36643 ft 402 kts 143°
2026-04-26 18:32 43.02294 10.07227 36971 ft 402 kts 143°
2026-04-26 18:32 43.00150 10.09613 37142 ft 405 kts 143°
2026-04-26 18:33 42.95749 10.14502 37146 ft 413 kts 143°
2026-04-26 18:33 42.91216 10.19524 37146 ft 429 kts 143°
2026-04-26 18:34 42.86477 10.24769 37147 ft 446 kts 143°
2026-04-26 18:34 42.81584 10.30174 37147 ft 463 kts 143°
2026-04-26 18:35 42.76470 10.35789 37142 ft 479 kts 144°
2026-04-26 18:35 42.71696 10.39756 37144 ft 488 kts 158°
2026-04-26 18:36 42.64134 10.43302 37144 ft 500 kts 166°
2026-04-26 18:36 42.58522 10.45514 37146 ft 507 kts 166°
2026-04-26 18:37 42.51732 10.48156 37144 ft 507 kts 166°
2026-04-26 18:37 42.44938 10.50839 37147 ft 507 kts 166°
2026-04-26 18:38 42.38205 10.53519 37148 ft 507 kts 166°
2026-04-26 18:38 42.31408 10.56225 37151 ft 507 kts 166°
2026-04-26 18:39 42.24922 10.59927 37148 ft 511 kts 154°
2026-04-26 18:39 42.18717 10.64659 37158 ft 511 kts 152°
2026-04-26 18:40 42.12610 10.69511 37151 ft 511 kts 151°
2026-04-26 18:40 42.06459 10.74380 37148 ft 511 kts 152°
2026-04-26 18:41 42.00343 10.79176 37150 ft 511 kts 152°
2026-04-26 18:41 41.94173 10.83987 37152 ft 511 kts 152°
2026-04-26 18:42 41.88004 10.88785 37150 ft 511 kts 152°
2026-04-26 18:42 41.81872 10.93544 37154 ft 511 kts 152°
2026-04-26 18:43 41.75713 10.98315 37155 ft 511 kts 152°
2026-04-26 18:43 41.69590 11.03048 37158 ft 510 kts 152°
2026-04-26 18:44 41.63415 11.07810 37153 ft 510 kts 152°
2026-04-26 18:44 41.57292 11.12521 37167 ft 510 kts 152°
2026-04-26 18:45 41.51128 11.17254 37165 ft 510 kts 152°
2026-04-26 18:45 41.45009 11.21941 37148 ft 509 kts 152°
2026-04-26 18:46 41.38854 11.26646 37159 ft 509 kts 152°
2026-04-26 18:46 41.32695 11.31344 37160 ft 509 kts 152°
2026-04-26 18:47 41.26569 11.36005 37157 ft 509 kts 152°
2026-04-26 18:47 41.20401 11.40690 37158 ft 509 kts 152°
2026-04-26 18:48 41.14245 11.45354 37160 ft 509 kts 152°
2026-04-26 18:48 41.08112 11.49991 37159 ft 509 kts 152°
2026-04-26 18:49 41.01938 11.54648 37158 ft 509 kts 152°
2026-04-26 18:49 40.95798 11.59270 37162 ft 509 kts 152°
2026-04-26 18:50 40.89629 11.63904 37160 ft 509 kts 152°
2026-04-26 18:50 40.83454 11.68532 37161 ft 509 kts 152°
2026-04-26 18:51 40.77327 11.73114 37161 ft 509 kts 152°
2026-04-26 18:51 40.71145 11.77729 37162 ft 509 kts 152°
2026-04-26 18:52 40.64993 11.82310 37162 ft 509 kts 152°
2026-04-26 18:52 40.58819 11.86898 37163 ft 509 kts 152°
2026-04-26 18:53 40.52673 11.91455 37161 ft 509 kts 152°
2026-04-26 18:53 40.46478 11.96039 37165 ft 509 kts 152°
2026-04-26 18:54 40.40294 12.00605 37165 ft 509 kts 152°
2026-04-26 18:54 40.34158 12.05126 37164 ft 509 kts 152°
2026-04-26 18:55 40.27978 12.09670 37162 ft 509 kts 152°
2026-04-26 18:55 40.21787 12.14212 37165 ft 509 kts 152°
2026-04-26 18:56 40.15652 12.18704 37165 ft 508 kts 152°
2026-04-26 18:56 40.09466 12.23223 37168 ft 508 kts 152°
2026-04-26 18:57 40.04330 12.26968 37166 ft 508 kts 152°
2026-04-26 18:57 39.97099 12.32230 37168 ft 508 kts 152°
2026-04-26 18:58 39.90947 12.36697 37168 ft 508 kts 152°
2026-04-26 18:58 39.84785 12.41161 37170 ft 508 kts 152°
2026-04-26 18:59 39.78590 12.45640 37171 ft 508 kts 152°
2026-04-26 18:59 39.72420 12.50091 37170 ft 508 kts 152°
2026-04-26 19:00 39.66230 12.54548 37177 ft 508 kts 152°
2026-04-26 19:00 39.60021 12.59010 37168 ft 509 kts 153°
2026-04-26 19:01 39.54089 12.63264 37170 ft 509 kts 153°
2026-04-26 19:01 39.47877 12.67709 37175 ft 509 kts 153°